FW0014 Weather Reports


time (UTC)temp
C
wind
direction
speed
KPH
gust
KPH
rain 1hr
cm
rain 24hr
cm
rain mn
cm
humidity
%
barometer
mb
20260510130816 22 67 4.8 8.0 0.00 0.00 0.00 83 1014.8
20260510130517 21 79 3.2 8.0 0.00 0.00 0.00 83 1012.3
20260510130332 22 79 3.2 8.0 0.00 0.00 0.00 83 1014.6
20260510130002 21 79 1.6 9.7 0.00 0.03 0.00 84 1012.3
20260510125829 21 79 3.2 9.7 0.00 0.03 0.00 84 1014.6
20260510125555 21 80 4.8 9.7 0.00 0.03 0.00 83 1012.2
20260510125326 21 53 4.8 9.7 0.00 0.03 0.00 84 1014.6
20260510125047 21 60 4.8 6.4 0.00 0.03 0.00 83 1012.1
20260510124821 21 54 3.2 6.4 0.00 0.03 0.00 84 1014.5
20260510124541 21 62 3.2 6.4 0.00 0.03 0.00 83 1011.9
20260510124317 21 79 3.2 4.8 0.00 0.03 0.00 84 1014.3
20260510124031 21 112 0.0 4.8 0.00 0.03 0.00 84 1011.7
20260510123832 21 158 1.6 4.8 0.00 0.03 0.00 83 1014.0
20260510123515 21 158 4.8 9.7 0.00 0.03 0.00 83 1011.4
20260510123328 21 158 4.8 9.7 0.00 0.03 0.00 83 1013.8
20260510123009 21 158 3.2 9.7 0.00 0.03 0.00 83 1011.3
20260510122824 21 110 3.2 6.4 0.00 0.03 0.00 83 1013.8
20260510122500 21 145 0.0 11.3 0.00 0.03 0.00 83 1011.2
20260510122342 21 145 0.0 12.9 0.00 0.03 0.00 83 1013.7
20260510122032 21 145 3.2 14.5 0.00 0.03 0.00 83 1011.2
20260510121818 21 127 6.4 14.5 0.00 0.03 0.00 83 1013.5
20260510121518 21 146 6.4 14.5 0.00 0.03 0.00 83 1010.8
20260510121354 21 149 9.7 14.5 0.00 0.03 0.00 83 1013.2
20260510121051 21 150 8.0 12.9 0.00 0.03 0.00 83 1010.7
20260510120828 21 168 9.7 12.9 0.00 0.03 0.00 83 1013.1
20260510120544 21 155 8.0 14.5 0.00 0.03 0.00 83 1010.5
20260510120323 21 186 8.0 16.1 0.00 0.03 0.00 83 1013.1
20260510120036 21 194 8.0 16.1 0.00 0.03 0.00 83 1010.5
20260510115820 21 205 8.0 16.1 0.00 0.03 0.00 83 1013.0
20260510115527 21 196 9.7 19.3 0.00 0.03 0.00 83 1010.5
20260510115316 21 160 9.7 19.3 0.00 0.03 0.00 83 1012.8
20260510115014 21 214 9.7 19.3 0.00 0.03 0.00 83 1010.3
20260510114832 21 199 11.3 19.3 0.00 0.03 0.00 83 1012.8
20260510114505 21 204 9.7 24.1 0.00 0.03 0.00 83 1010.2
20260510114328 21 193 11.3 24.1 0.00 0.03 0.00 83 1012.6
20260510114037 21 166 12.9 24.1 0.00 0.03 0.00 83 1010.1
20260510113845 21 222 14.5 24.1 0.00 0.03 0.00 83 1012.4
20260510113500 21 207 11.3 19.3 0.00 0.03 0.00 83 1010.0
20260510113319 21 210 11.3 19.3 0.00 0.03 0.00 84 1012.4
20260510113100 21 220 9.7 16.1 0.00 0.03 0.00 84 1010.2
20260510112815 21 214 9.7 16.1 0.00 0.03 0.00 84 1012.6
20260510112545 21 212 8.0 14.5 0.00 0.03 0.00 84 1010.3
20260510112327 21 218 9.7 12.9 0.00 0.03 0.00 84 1012.6
20260510112036 21 190 8.0 16.1 0.00 0.03 0.00 84 1010.2
20260510111824 21 214 9.7 16.1 0.00 0.03 0.00 84 1012.7
20260510111529 21 194 9.7 16.1 0.00 0.03 0.00 84 1010.3
20260510111319 21 225 9.7 16.1 0.00 0.03 0.00 84 1012.6
20260510111022 21 206 8.0 16.1 0.00 0.03 0.00 84 1010.2
20260510110816 21 210 11.3 16.1 0.00 0.03 0.00 84 1012.6
20260510110516 21 189 9.7 14.5 0.00 0.03 0.00 84 1010.3
20260510110333 21 191 9.7 14.5 0.00 0.03 0.00 84 1012.7
20260510110100 21 196 8.0 16.1 0.00 0.03 0.00 84 1010.3
20260510105830 21 201 9.7 16.1 0.00 0.03 0.00 84 1012.6
20260510105553 21 210 8.0 16.1 0.00 0.03 0.00 84 1010.2
20260510105326 21 217 8.0 14.5 0.00 0.03 0.00 84 1012.6
20260510105042 21 199 8.0 16.1 0.00 0.03 0.00 84 1010.1
20260510104821 21 201 8.0 16.1 0.00 0.03 0.00 84 1012.5
20260510104533 21 212 9.7 16.1 0.00 0.03 0.00 84 1010.2
20260510104337 21 204 9.7 12.9 0.00 0.03 0.00 84 1012.5
20260510104057 21 221 8.0 12.9 0.00 0.03 0.00 84 1010.2
20260510103833 21 220 8.0 14.5 0.00 0.03 0.00 84 1012.4
20260510103548 21 213 8.0 14.5 0.00 0.03 0.00 84 1010.0
20260510103329 21 226 8.0 14.5 0.00 0.03 0.00 84 1012.4
20260510103041 21 215 9.7 14.5 0.00 0.03 0.00 84 1010.1
20260510102824 21 210 9.7 14.5 0.00 0.03 0.00 84 1012.4
20260510102533 21 232 8.0 14.5 0.00 0.03 0.00 84 1010.1
20260510102321 21 210 8.0 12.9 0.00 0.03 0.00 84 1012.5
20260510102027 21 224 6.4 12.9 0.00 0.03 0.00 84 1010.1
20260510101815 21 210 8.0 12.9 0.00 0.03 0.00 84 1012.5
20260510101516 21 210 6.4 12.9 0.00 0.03 0.00 84 1010.1
20260510101332 21 214 8.0 12.9 0.00 0.03 0.00 84 1012.4
20260510101103 21 189 8.0 12.9 0.00 0.03 0.00 84 1010.0
20260510100828 21 220 8.0 12.9 0.00 0.03 0.00 84 1012.4
20260510100554 21 199 6.4 12.9 0.00 0.03 0.00 84 1009.9
20260510100345 21 213 8.0 14.5 0.00 0.03 0.00 84 1012.4
20260510100026 21 201 8.0 14.5 0.00 0.03 0.00 84 1009.9
20260510095821 21 211 9.7 14.5 0.00 0.03 0.00 84 1012.3
20260510095520 21 224 6.4 14.5 0.00 0.03 0.00 84 1009.9
20260510095316 21 218 9.7 14.5 0.00 0.03 0.00 84 1012.3
20260510095104 21 218 8.0 19.3 0.00 0.03 0.00 84 1009.9
20260510094853 21 212 8.0 19.3 0.00 0.03 0.00 84 1012.3
20260510094535 21 217 9.7 19.3 0.00 0.03 0.00 84 1009.9
20260510094326 22 207 9.7 16.1 0.00 0.03 0.00 84 1012.3
20260510094100 21 217 9.7 16.1 0.00 0.03 0.00 84 1010.0
20260510093822 22 226 9.7 16.1 0.00 0.03 0.00 84 1012.2
20260510093550 21 214 8.0 16.1 0.00 0.03 0.00 83 1009.9
20260510093320 22 225 9.7 16.1 0.00 0.03 0.00 83 1012.3
20260510093046 21 203 9.7 16.1 0.00 0.03 0.00 83 1010.1
20260510092815 22 198 9.7 14.5 0.00 0.03 0.00 83 1012.3
20260510092504 21 223 6.4 16.1 0.00 0.03 0.00 83 1010.0
20260510092331 22 179 8.0 16.1 0.00 0.03 0.00 83 1012.3
20260510092058 21 201 8.0 16.1 0.00 0.03 0.00 83 1010.0
20260510091828 22 202 9.7 16.1 0.00 0.03 0.00 83 1012.3
20260510091551 22 204 8.0 14.5 0.00 0.03 0.00 83 1010.0
20260510091323 22 193 8.0 14.5 0.00 0.03 0.00 83 1012.3
20260510091044 22 202 6.4 16.1 0.00 0.03 0.00 83 1009.9
20260510090820 22 231 6.4 16.1 0.00 0.03 0.00 83 1012.2
20260510090538 22 232 9.7 16.1 0.00 0.03 0.00 83 1009.8
20260510090315 22 237 9.7 24.1 0.00 0.03 0.00 82 1012.2
20260510090030 22 180 9.7 24.1 0.00 0.03 0.00 82 1009.8
20260510085830 22 185 9.7 24.1 0.00 0.03 0.00 82 1012.2
20260510085513 22 195 11.3 19.3 0.00 0.03 0.00 83 1009.8
20260510085327 22 183 9.7 17.7 0.00 0.03 0.00 83 1012.2
20260510085002 22 204 8.0 17.7 0.00 0.03 0.00 82 1009.8
20260510084844 22 182 9.7 17.7 0.00 0.03 0.00 83 1012.2
20260510084537 22 195 9.7 16.1 0.00 0.03 0.00 82 1010.0
20260510084335 22 191 11.3 16.1 0.00 0.03 0.00 82 1012.3
20260510084058 22 181 9.7 16.1 0.00 0.03 0.00 83 1010.0
20260510083831 22 184 9.7 14.5 0.00 0.03 0.00 83 1012.4
20260510083548 22 187 8.0 14.5 0.00 0.03 0.00 83 1010.2
20260510083327 22 165 8.0 14.5 0.00 0.03 0.00 82 1012.4
20260510083038 22 211 8.0 14.5 0.00 0.03 0.00 82 1010.1
20260510082826 22 185 9.7 14.5 0.00 0.03 0.00 82 1012.4
20260510082530 22 204 8.0 14.5 0.00 0.03 0.00 82 1009.9
20260510082323 22 191 11.3 17.7 0.00 0.03 0.00 82 1012.4
20260510082021 22 182 8.0 12.9 0.00 0.03 0.00 82 1010.0
20260510081818 22 199 9.7 12.9 0.00 0.03 0.00 82 1012.4
20260510081504 22 169 8.0 12.9 0.00 0.03 0.00 82 1010.1
20260510081314 22 166 9.7 12.9 0.00 0.03 0.00 82 1012.5
20260510081058 22 153 8.0 11.3 0.00 0.03 0.00 82 1010.2
20260510080831 22 155 8.0 11.3 0.00 0.03 0.00 82 1012.5
20260510080550 22 175 6.4 12.9 0.00 0.03 0.00 82 1010.2
20260510080327 22 178 6.4 12.9 0.00 0.03 0.00 82 1012.6
20260510080055 22 149 6.4 12.9 0.00 0.03 0.00 82 1010.0
20260510075825 22 176 8.0 12.9 0.00 0.03 0.00 82 1012.4
20260510075542 22 174 8.0 14.5 0.00 0.03 0.00 82 1010.0
20260510075320 22 183 8.0 12.9 0.00 0.03 0.00 82 1012.3
20260510075034 22 181 8.0 12.9 0.00 0.03 0.00 82 1009.9
20260510074837 22 172 8.0 12.9 0.00 0.03 0.00 82 1012.3
20260510074559 22 181 6.4 12.9 0.00 0.03 0.00 82 1010.0
20260510074352 22 190 8.0 12.9 0.00 0.03 0.00 82 1012.4
20260510074031 22 204 6.4 12.9 0.00 0.03 0.00 83 1010.0
20260510073827 22 166 8.0 12.9 0.00 0.03 0.00 83 1012.3
20260510073513 22 164 8.0 14.5 0.00 0.03 0.00 82 1010.0
20260510073324 22 165 9.7 14.5 0.00 0.03 0.00 82 1012.3
20260510073008 22 170 8.0 12.9 0.00 0.03 0.00 82 1010.0
20260510072820 22 174 9.7 12.9 0.00 0.03 0.00 82 1012.3
20260510072558 22 168 9.7 14.5 0.00 0.03 0.00 82 1009.9
20260510072316 22 179 11.3 16.1 0.00 0.03 0.00 82 1012.4
20260510072049 22 175 8.0 14.5 0.00 0.03 0.00 82 1010.0
20260510071832 22 184 9.7 14.5 0.00 0.03 0.00 82 1012.4
20260510071542 22 165 9.7 14.5 0.00 0.03 0.00 82 1009.9
20260510071348 22 185 11.3 16.1 0.00 0.03 0.00 82 1012.4
20260510071004 22 162 9.7 16.1 0.00 0.03 0.00 82 1010.0
20260510070823 22 166 9.7 16.1 0.00 0.03 0.00 82 1012.4
20260510070558 22 187 8.0 12.9 0.00 0.03 0.00 82 1010.1
20260510070319 22 181 9.7 11.3 0.00 0.03 0.00 82 1012.4
20260510070056 22 166 9.7 12.9 0.00 0.03 0.00 81 1010.1
20260510065814 23 160 9.7 12.9 0.00 0.03 0.00 81 1012.4
20260510065544 22 163 9.7 12.9 0.00 0.03 0.00 81 1010.1
20260510065331 23 147 8.0 11.3 0.00 0.03 0.00 81 1012.5
20260510065039 22 172 8.0 11.3 0.00 0.03 0.00 81 1010.2
20260510064847 23 160 9.7 11.3 0.00 0.03 0.00 81 1012.6
20260510064512 23 167 8.0 11.3 0.00 0.03 0.00 81 1010.1
20260510064343 23 158 8.0 12.9 0.00 0.03 0.00 81 1012.5
20260510064036 23 152 8.0 12.9 0.00 0.03 0.00 81 1010.1
20260510063819 23 161 8.0 14.5 0.00 0.03 0.00 81 1012.5
20260510063530 23 151 6.4 14.5 0.00 0.03 0.00 81 1010.1
20260510063316 23 195 11.3 14.5 0.00 0.03 0.00 81 1012.5
20260510063014 23 179 8.0 14.5 0.00 0.03 0.00 81 1010.2
20260510062832 23 181 9.7 14.5 0.00 0.03 0.00 81 1012.5
20260510062506 23 164 9.7 16.1 0.00 0.03 0.00 81 1010.1
20260510062329 23 170 9.7 16.1 0.00 0.03 0.00 81 1012.5
20260510062100 23 170 8.0 17.7 0.00 0.03 0.00 81 1010.2
20260510061825 23 199 8.0 14.5 0.00 0.03 0.00 81 1012.5
20260510061554 23 186 8.0 14.5 0.00 0.03 0.00 81 1010.2
20260510061341 23 167 9.7 14.5 0.00 0.03 0.00 82 1012.6
20260510061024 23 166 9.7 16.1 0.00 0.03 0.00 82 1010.2
20260510060816 23 178 9.7 14.5 0.00 0.03 0.00 82 1012.6
20260510060508 22 197 8.0 14.5 0.00 0.03 0.00 82 1010.2
20260510060328 23 156 8.0 14.5 0.00 0.03 0.00 82 1012.5
20260510060106 22 176 6.4 14.5 0.00 0.03 0.00 82 1010.2
20260510055844 23 168 6.4 11.3 0.00 0.03 0.00 82 1012.6
20260510055522 23 163 8.0 14.5 0.00 0.03 0.00 82 1010.2
20260510055320 23 172 8.0 14.5 0.00 0.03 0.00 82 1012.6
20260510055017 22 168 9.7 14.5 0.00 0.03 0.00 82 1010.2
20260510054816 23 174 8.0 14.5 0.00 0.03 0.00 82 1012.4
20260510054606 22 166 8.0 14.5 0.00 0.03 0.00 82 1010.1
20260510054331 23 181 8.0 16.1 0.00 0.03 0.00 82 1012.4
20260510054055 22 191 8.0 12.9 0.00 0.03 0.00 82 1010.1
20260510053827 23 169 8.0 14.5 0.00 0.03 0.00 82 1012.5
20260510053548 22 163 6.4 14.5 0.00 0.03 0.00 82 1010.0
20260510053344 23 187 6.4 14.5 0.00 0.03 0.00 82 1012.5
20260510053037 22 174 8.0 14.5 0.00 0.03 0.00 82 1010.2
20260510052819 23 155 9.7 14.5 0.00 0.03 0.00 82 1012.3
20260510052503 22 181 6.4 16.1 0.00 0.03 0.00 81 1010.1
20260510052316 23 181 8.0 16.1 0.00 0.03 0.00 81 1012.4
20260510052056 22 165 9.7 16.1 0.00 0.03 0.00 81 1010.1
20260510051832 23 164 9.7 17.7 0.00 0.03 0.00 81 1012.4
20260510051552 22 168 8.0 14.5 0.00 0.03 0.00 81 1010.1
20260510051327 23 191 9.7 14.5 0.00 0.03 0.00 81 1012.5
20260510051039 22 162 8.0 14.5 0.00 0.03 0.00 81 1010.1
20260510050825 23 183 8.0 16.1 0.00 0.03 0.00 81 1012.5
20260510050532 22 190 9.7 14.5 0.00 0.03 0.00 81 1010.2
20260510050319 23 191 8.0 14.5 0.00 0.03 0.00 80 1012.5
20260510050118 22 177 8.0 11.3 0.00 0.03 0.00 80 1010.1
20260510045833 23 172 9.7 16.1 0.00 0.03 0.03 80 1012.5
20260510045542 22 181 8.0 16.1 0.00 0.03 0.03 80 1010.2
20260510045329 23 151 9.7 16.1 0.00 0.03 0.03 80 1012.6
20260510045030 22 185 8.0 16.1 0.00 0.03 0.03 79 1010.2
20260510044845 23 185 8.0 14.5 0.00 0.03 0.03 79 1012.4
20260510044557 22 165 6.4 14.5 0.00 0.03 0.03 79 1010.1
20260510044320 23 164 8.0 14.5 0.00 0.03 0.03 79 1012.4
20260510044026 22 183 6.4 11.3 0.00 0.03 0.03 79 1010.2
20260510043815 23 176 8.0 12.9 0.00 0.03 0.03 79 1012.4
20260510043510 22 181 4.8 9.7 0.00 0.03 0.03 78 1010.2
20260510043330 23 174 6.4 11.3 0.00 0.03 0.03 78 1012.4
20260510043002 22 174 6.4 11.3 0.00 0.03 0.03 78 1010.2
20260510042846 23 174 4.8 9.7 0.00 0.03 0.03 78 1012.5
20260510042539 22 191 4.8 9.7 0.00 0.03 0.03 77 1010.2
20260510042340 23 174 4.8 9.7 0.00 0.03 0.03 77 1012.3
20260510042102 22 174 4.8 9.7 0.00 0.03 0.03 77 1010.1
20260510041817 23 179 4.8 9.7 0.00 0.03 0.03 77 1012.4
20260510041552 23 182 4.8 9.7 0.00 0.03 0.03 76 1010.2
20260510041331 23 192 6.4 8.0 0.00 0.03 0.03 76 1012.6
20260510041052 23 176 6.4 8.0 0.00 0.03 0.03 76 1010.2
20260510040822 23 195 6.4 8.0 0.00 0.03 0.03 76 1012.5
20260510040523 23 181 3.2 6.4 0.00 0.03 0.03 76 1010.2
20260510040318 23 182 4.8 6.4 0.00 0.03 0.03 76 1012.5
20260510040016 23 181 3.2 6.4 0.00 0.03 0.03 75 1010.2
20260510035834 23 182 4.8 6.4 0.00 0.03 0.03 75 1012.4
20260510035603 23 181 3.2 6.4 0.00 0.03 0.03 75 1010.2
20260510035330 23 182 3.2 8.0 0.00 0.03 0.03 75 1012.4
20260510035053 23 181 3.2 8.0 0.00 0.03 0.03 75 1010.2
20260510034826 23 181 4.8 8.0 0.00 0.03 0.03 75 1012.4
20260510034604 23 181 3.2 8.0 0.00 0.03 0.03 74 1010.1
20260510034322 23 182 3.2 6.4 0.00 0.03 0.03 74 1012.4
20260510034040 23 181 3.2 6.4 0.00 0.03 0.03 74 1010.1
20260510033817 23 182 4.8 6.4 0.00 0.03 0.03 74 1012.4
20260510033538 23 181 3.2 6.4 0.00 0.03 0.03 74 1010.0
20260510033332 23 182 3.2 6.4 0.00 0.03 0.03 74 1012.4
20260510033020 23 181 3.2 6.4 0.00 0.03 0.03 74 1010.1
20260510032848 23 181 3.2 6.4 0.00 0.03 0.03 74 1012.3
20260510032554 23 182 3.2 4.8 0.00 0.03 0.03 74 1010.0
20260510032343 24 182 1.6 4.8 0.00 0.03 0.03 74 1012.4
20260510032026 23 182 0.0 0.0 0.00 0.03 0.03 73 1010.0
20260510031818 24 181 0.0 0.0 0.00 0.03 0.03 73 1012.3
20260510031524 23 182 0.0 0.0 0.00 0.03 0.03 73 1010.1
20260510031315 24 182 0.0 0.0 0.00 0.03 0.03 73 1012.4
20260510031039 24 182 0.0 0.0 0.00 0.03 0.03 73 1010.0
20260510030851 24 182 0.0 0.0 0.00 0.03 0.03 73 1012.2
20260510030502 24 181 0.0 0.0 0.00 0.03 0.03 73 1009.9
20260510030324 24 181 0.0 0.0 0.00 0.03 0.03 73 1012.1
20260510030106 24 152 0.0 0.0 0.00 0.03 0.03 73 1009.8
20260510025839 25 152 0.0 0.0 0.00 0.03 0.03 73 1012.0
20260510025528 24 158 0.0 0.0 0.00 0.03 0.03 72 1009.7
20260510025314 25 138 0.0 0.0 0.00 0.03 0.03 72 1011.8
20260510025020 24 138 0.0 0.0 0.00 0.03 0.03 72 1009.6
20260510024831 25 138 0.0 0.0 0.00 0.03 0.03 72 1011.8
20260510024509 25 164 0.0 0.0 0.00 0.03 0.03 72 1009.6
20260510024328 25 164 0.0 0.0 0.00 0.03 0.03 71 1011.9
20260510024006 25 164 0.0 0.0 0.00 0.03 0.03 71 1009.5
20260510023845 25 157 0.0 0.0 0.00 0.03 0.03 71 1011.8
20260510023540 25 177 0.0 0.0 0.00 0.03 0.03 71 1009.5
20260510023317 25 177 0.0 0.0 0.00 0.03 0.03 70 1011.7
20260510023002 25 177 0.0 0.0 0.00 0.03 0.03 70 1009.3
20260510022833 25 177 0.0 0.0 0.00 0.03 0.03 69 1011.5
20260510022603 25 177 0.0 0.0 0.00 0.03 0.03 68 1009.1
20260510022323 26 177 0.0 0.0 0.00 0.03 0.03 68 1011.4
20260510022028 25 173 0.0 0.0 0.00 0.03 0.03 67 1009.0
20260510021819 26 188 0.0 0.0 0.00 0.03 0.03 66 1011.4
20260510021529 26 162 0.0 0.0 0.00 0.03 0.03 65 1009.1
20260510021316 26 154 0.0 0.0 0.00 0.03 0.03 65 1011.3
20260510021018 26 139 0.0 0.0 0.00 0.03 0.03 65 1009.1
20260510020832 26 140 0.0 0.0 0.00 0.03 0.03 65 1011.2
20260510020502 26 139 0.0 0.0 0.00 0.03 0.03 64 1008.8
20260510020329 26 140 0.0 0.0 0.00 0.03 0.03 64 1011.0
20260510020054 26 139 0.0 0.0 0.00 0.03 0.03 64 1008.7
20260510015824 27 140 0.0 0.0 0.00 0.03 0.03 64 1011.0
20260510015543 26 139 0.0 0.0 0.00 0.03 0.03 64 1008.6
20260510015321 27 141 0.0 0.0 0.00 0.03 0.03 63 1010.9
20260510015033 26 147 0.0 0.0 0.00 0.03 0.03 62 1008.7
20260510014815 27 193 0.0 0.0 0.00 0.03 0.03 62 1010.9
20260510014518 27 193 0.0 0.0 0.00 0.03 0.03 61 1008.6
20260510014353 27 193 0.0 0.0 0.00 0.03 0.03 60 1010.8
20260510014050 27 193 0.0 0.0 0.00 0.03 0.03 59 1008.5
20260510013826 27 193 0.0 0.0 0.00 0.03 0.03 58 1010.7
20260510013540 27 193 0.0 0.0 0.00 0.03 0.03 57 1008.6
20260510013322 27 193 0.0 0.0 0.00 0.03 0.03 57 1010.7
20260510013035 27 193 0.0 0.0 0.00 0.03 0.03 56 1008.4
20260510012817 28 193 0.0 0.0 0.00 0.03 0.03 56 1010.6
20260510012526 28 193 0.0 0.0 0.00 0.03 0.03 55 1008.2
20260510012333 28 193 0.0 0.0 0.00 0.03 0.03 54 1010.4
20260510012010 28 193 0.0 0.0 0.00 0.03 0.03 54 1008.1
20260510011827 28 193 0.0 0.0 0.00 0.03 0.03 54 1010.3
20260510011504 28 193 0.0 0.0 0.00 0.03 0.03 53 1008.1
20260510011322 28 193 0.0 0.0 0.00 0.03 0.03 53 1010.3
20260510011058 28 193 0.0 0.0 0.00 0.03 0.03 53 1008.1
20260510010839 29 193 0.0 0.0 0.00 0.03 0.03 53 1010.3
20260510010528 29 194 0.0 0.0 0.00 0.03 0.03 52 1008.1
20260510010333 29 193 0.0 0.0 0.00 0.03 0.03 52 1010.3
20260510010010 29 193 0.0 0.0 0.00 0.03 0.03 52 1008.1
20260510005829 30 193 0.0 0.0 0.00 0.03 0.03 52 1010.3
20260510005545 29 193 0.0 0.0 0.00 0.03 0.03 52 1008.1
20260510005324 30 193 0.0 0.0 0.00 0.03 0.03 52 1010.3
20260510005036 30 193 0.0 0.0 0.00 0.03 0.03 52 1008.1
20260510004840 30 193 0.0 0.0 0.00 0.03 0.03 52 1010.2
20260510004602 30 193 0.0 0.0 0.00 0.03 0.03 51 1008.1
20260510004316 30 193 0.0 0.0 0.00 0.03 0.03 51 1010.2
20260510004054 30 193 0.0 0.0 0.00 0.03 0.03 51 1008.0
20260510003832 30 193 0.0 0.0 0.00 0.03 0.03 51 1010.3
20260510003516 30 193 0.0 0.0 0.00 0.03 0.03 50 1008.0
20260510003328 30 193 0.0 0.0 0.00 0.03 0.03 50 1010.3
20260510003010 30 194 0.0 0.0 0.00 0.03 0.03 50 1008.1
20260510002825 30 193 0.0 0.0 0.00 0.03 0.03 50 1010.2
20260510002541 30 193 0.0 0.0 0.00 0.03 0.03 49 1008.0
20260510002342 30 193 0.0 0.0 0.00 0.03 0.03 49 1010.3
20260510002016 30 193 0.0 0.0 0.00 0.03 0.03 48 1008.0
20260510001818 30 194 0.0 0.0 0.00 0.03 0.03 47 1010.2
20260510001602 30 193 0.0 0.0 0.00 0.03 0.03 48 1008.0
20260510001329 30 194 0.0 0.0 0.00 0.03 0.03 47 1010.2
20260510001058 30 193 0.0 0.0 0.00 0.03 0.03 46 1007.9
20260510000826 30 193 0.0 0.0 0.00 0.03 0.03 48 1010.2
20260510000554 30 193 0.0 0.0 0.00 0.03 0.03 47 1008.0
20260510000344 30 193 0.0 0.0 0.00 0.03 0.03 47 1010.2
20260510000022 30 182 0.0 0.0 0.00 0.03 0.03 47 1008.0
20260509235818 30 170 0.0 0.0 0.00 0.03 0.03 47 1010.1
20260509235544 30 221 0.0 0.0 0.00 0.03 0.03 50 1007.8
20260509235400 31 221 0.0 0.0 0.00 0.03 0.03 48 1010.1
20260509235014 30 220 0.0 0.0 0.00 0.03 0.03 48 1007.9
20260509234829 31 220 0.0 0.0 0.00 0.03 0.03 47 1010.1
20260509234602 30 216 0.0 0.0 0.00 0.03 0.03 48 1007.9
20260509234328 31 218 0.0 0.0 0.00 0.03 0.03 48 1010.1
20260509234052 30 204 0.0 0.0 0.00 0.03 0.03 49 1007.9
20260509233825 31 224 0.0 0.0 0.00 0.03 0.03 48 1010.1
20260509233544 30 185 0.0 0.0 0.00 0.03 0.03 47 1007.9
20260509233320 31 175 0.0 0.0 0.00 0.03 0.03 47 1010.1
20260509233036 30 164 0.0 0.0 0.00 0.03 0.03 47 1007.9
20260509232816 31 171 0.0 0.0 0.00 0.03 0.03 48 1010.1
20260509232532 30 233 0.0 0.0 0.00 0.03 0.03 48 1008.0
20260509232332 31 172 0.0 0.0 0.00 0.03 0.03 48 1010.1
20260509232016 30 211 0.0 0.0 0.00 0.03 0.03 49 1007.9
20260509231828 31 190 0.0 0.0 0.00 0.03 0.03 49 1010.0
20260509231507 30 179 0.0 0.0 0.00 0.03 0.03 49 1007.9
20260509231324 31 189 0.0 0.0 0.00 0.03 0.03 49 1010.1
20260509231101 30 189 0.0 0.0 0.00 0.03 0.03 48 1007.9
20260509230822 31 214 0.0 0.0 0.00 0.03 0.03 47 1010.1
20260509230553 31 170 0.0 0.0 0.00 0.03 0.03 47 1007.9
20260509230320 31 190 0.0 0.0 0.00 0.03 0.03 48 1010.1
20260509230052 31 190 0.0 0.0 0.00 0.03 0.03 48 1007.9
20260509225853 31 236 0.0 3.2 0.00 0.03 0.03 47 1010.0
20260509225516 31 235 0.0 3.2 0.00 0.03 0.03 47 1007.9
20260509225330 31 237 0.0 3.2 0.00 0.03 0.03 47 1010.1
20260509225009 31 158 0.0 3.2 0.00 0.03 0.03 48 1007.9
20260509224825 31 158 0.0 8.0 0.00 0.03 0.03 48 1010.1
20260509224501 31 158 1.6 9.7 0.00 0.03 0.03 48 1007.9
20260509224322 31 158 1.6 9.7 0.00 0.03 0.03 47 1010.0
20260509224051 31 158 6.4 9.7 0.00 0.03 0.03 46 1007.9
20260509223814 31 206 4.8 9.7 0.00 0.03 0.03 47 1010.1
20260509223546 31 207 4.8 9.7 0.00 0.03 0.03 47 1007.9
20260509223352 31 198 1.6 4.8 0.00 0.03 0.03 48 1010.1
20260509223014 31 249 0.0 4.8 0.00 0.03 0.03 48 1007.9
20260509222827 31 249 0.0 4.8 0.00 0.03 0.03 47 1010.0
20260509222507 31 249 0.0 8.0 0.00 0.03 0.03 48 1007.9
20260509222324 31 282 1.6 9.7 0.00 0.03 0.03 48 1010.0
20260509222002 31 283 3.2 9.7 0.00 0.03 0.03 48 1008.0
20260509221841 31 287 4.8 9.7 0.00 0.03 0.03 48 1010.0
20260509221533 31 231 4.8 9.7 0.00 0.03 0.03 48 1007.9
20260509221316 31 240 3.2 11.3 0.00 0.03 0.03 49 1010.1
20260509221058 31 230 4.8 19.3 0.00 0.03 0.03 50 1008.0
20260509220831 31 220 4.8 19.3 0.00 0.03 0.03 50 1010.1
20260509220549 31 254 6.4 19.3 0.00 0.03 0.03 49 1008.0
20260509220325 31 247 6.4 22.5 0.00 0.03 0.03 48 1010.0
20260509220045 31 66 3.2 6.4 0.00 0.03 0.03 47 1008.0
20260509215838 31 233 1.6 9.7 0.00 0.03 0.03 48 1010.1
20260509215518 31 181 1.6 9.7 0.00 0.03 0.03 47 1008.0
20260509215332 31 181 4.8 9.7 0.00 0.03 0.03 47 1010.1
20260509215100 31 218 6.4 9.7 0.00 0.03 0.03 47 1008.0
20260509214828 31 194 3.2 11.3 0.00 0.03 0.03 48 1010.2
20260509214600 31 271 3.2 11.3 0.00 0.03 0.03 48 1008.1
20260509214324 31 238 4.8 11.3 0.00 0.03 0.03 48 1010.3
20260509214043 31 220 4.8 11.3 0.00 0.03 0.03 49 1008.1
20260509213820 31 199 4.8 11.3 0.00 0.03 0.03 49 1010.2
20260509213533 31 231 1.6 6.4 0.00 0.03 0.03 47 1008.1
20260509213336 31 231 0.0 6.4 0.00 0.03 0.03 48 1010.3
20260509213100 31 231 3.2 6.4 0.00 0.03 0.03 49 1008.2
20260509212830 31 162 1.6 9.7 0.00 0.03 0.03 49 1010.3
20260509212531 30 248 0.0 9.7 0.00 0.03 0.03 49 1008.3
20260509212325 31 249 0.0 9.7 0.00 0.03 0.03 48 1010.4
20260509212028 30 181 6.4 9.7 0.00 0.03 0.03 48 1008.3
20260509211823 31 160 3.2 9.7 0.00 0.03 0.03 48 1010.4
20260509211507 30 208 6.4 9.7 0.00 0.03 0.03 49 1008.4
20260509211318 31 198 6.4 9.7 0.00 0.03 0.03 49 1010.5
20260509211100 30 216 4.8 11.3 0.00 0.03 0.03 50 1008.4
20260509210854 31 271 3.2 11.3 0.00 0.03 0.03 51 1010.5
20260509210534 30 251 3.2 14.5 0.00 0.03 0.03 50 1008.5
20260509210329 30 250 4.8 14.5 0.00 0.03 0.03 50 1010.5
20260509210026 30 193 9.7 14.5 0.00 0.03 0.03 49 1008.5
20260509205824 30 183 4.8 12.9 0.00 0.03 0.03 50 1010.7
20260509205509 30 230 4.8 16.1 0.00 0.03 0.03 49 1008.6
20260509205322 30 282 8.0 16.1 0.00 0.03 0.03 50 1010.7
20260509205002 30 261 6.4 16.1 0.00 0.03 0.03 52 1008.8
20260509204818 30 268 8.0 14.5 0.00 0.03 0.03 51 1010.9
20260509204600 30 291 6.4 12.9 0.00 0.03 0.03 52 1008.8
20260509204333 30 295 4.8 12.9 0.00 0.03 0.03 52 1010.9
20260509204049 30 266 4.8 12.9 0.00 0.03 0.03 51 1009.0
20260509203829 30 327 3.2 12.9 0.00 0.03 0.03 52 1011.1
20260509203541 30 233 4.8 16.1 0.00 0.03 0.03 50 1009.1
20260509203325 30 253 4.8 16.1 0.00 0.03 0.03 53 1011.1
20260509203038 30 243 6.4 16.1 0.00 0.03 0.03 54 1009.0
20260509202821 30 265 6.4 16.1 0.00 0.03 0.03 54 1011.1
20260509202525 30 235 8.0 12.9 0.00 0.03 0.03 56 1009.1
20260509202317 30 248 6.4 12.9 0.00 0.03 0.03 57 1011.1
20260509202011 30 268 4.8 11.3 0.00 0.03 0.03 58 1009.1
20260509201854 30 310 4.8 9.7 0.00 0.03 0.03 58 1011.1
20260509201546 30 238 1.6 11.3 0.00 0.03 0.03 56 1009.0
20260509201329 30 136 6.4 11.3 0.00 0.03 0.03 56 1011.1
20260509201037 30 152 3.2 11.3 0.00 0.03 0.03 56 1009.2
20260509200826 30 246 4.8 16.1 0.00 0.03 0.03 56 1011.2
20260509200529 30 236 1.6 16.1 0.00 0.03 0.03 55 1009.3
20260509200321 30 218 8.0 16.1 0.00 0.03 0.03 55 1011.3
20260509200028 30 260 8.0 14.5 0.00 0.03 0.03 58 1009.3
20260509195817 30 220 6.4 14.5 0.00 0.03 0.03 58 1011.3
20260509195506 30 266 4.8 14.5 0.00 0.03 0.03 57 1009.3
20260509195332 30 306 6.4 14.5 0.00 0.03 0.03 57 1011.4
20260509195059 30 257 4.8 12.9 0.00 0.03 0.03 57 1009.5
20260509194828 30 263 4.8 11.3 0.00 0.03 0.03 58 1011.4
20260509194553 29 177 0.0 1.6 0.00 0.03 0.03 59 1009.5
20260509194324 29 177 0.0 0.0 0.00 0.03 0.03 58 1011.5
20260509194041 28 177 0.0 0.0 0.00 0.03 0.03 59 1009.6
20260509193821 29 177 0.0 0.0 0.00 0.03 0.03 60 1011.7
20260509193537 28 177 0.0 0.0 0.00 0.03 0.03 58 1009.7
20260509193317 29 191 0.0 0.0 0.00 0.03 0.03 59 1011.7
20260509193033 29 222 0.0 0.0 0.00 0.03 0.03 60 1009.8
20260509192814 29 211 0.0 0.0 0.00 0.03 0.03 59 1011.8
20260509192511 29 228 0.0 0.0 0.00 0.03 0.03 61 1009.9
20260509192330 29 222 0.0 0.0 0.00 0.03 0.03 61 1011.8
20260509192005 28 259 0.0 0.0 0.00 0.03 0.03 60 1009.9
20260509191825 29 273 0.0 0.0 0.00 0.03 0.03 60 1011.9
20260509191604 28 259 0.0 0.0 0.00 0.03 0.03 61 1010.0
20260509191322 29 194 0.0 0.0 0.00 0.03 0.03 60 1011.9
20260509191051 28 216 0.0 0.0 0.00 0.03 0.03 61 1010.1
20260509190817 28 181 0.0 0.0 0.00 0.03 0.03 60 1012.2
20260509190543 28 161 0.0 0.0 0.00 0.03 0.03 60 1010.3
20260509190328 28 222 0.0 0.0 0.00 0.03 0.03 61 1012.2
20260509190007 28 177 0.0 0.0 0.00 0.03 0.03 62 1010.3
20260509185823 28 271 0.0 0.0 0.00 0.03 0.03 63 1012.3
20260509185501 28 276 0.0 0.0 0.00 0.03 0.03 63 1010.3
20260509185317 28 220 0.0 0.0 0.00 0.03 0.03 63 1012.4
20260509185033 28 208 0.0 0.0 0.00 0.03 0.03 63 1010.5
20260509184814 28 208 0.0 0.0 0.00 0.03 0.03 63 1012.5
20260509184523 28 226 0.0 0.0 0.00 0.03 0.03 64 1010.5
20260509184329 28 191 0.0 0.0 0.00 0.03 0.03 65 1012.4
20260509184007 28 158 0.0 0.0 0.00 0.03 0.03 65 1010.6
20260509183825 28 160 0.0 0.0 0.00 0.03 0.03 63 1012.6
20260509183601 28 169 0.0 0.0 0.00 0.03 0.03 64 1010.7
20260509183321 28 127 0.0 0.0 0.00 0.03 0.03 66 1012.7
20260509183103 28 127 0.0 0.0 0.00 0.03 0.03 65 1010.9
20260509182816 28 76 0.0 0.0 0.00 0.03 0.03 66 1012.8
20260509182545 28 88 0.0 0.0 0.00 0.03 0.03 66 1010.8
20260509182331 28 359 0.0 0.0 0.00 0.03 0.03 67 1012.7
20260509182015 27 110 0.0 0.0 0.00 0.03 0.03 69 1011.0
20260509181829 28 110 0.0 0.0 0.00 0.03 0.03 67 1012.9
20260509181503 27 237 0.0 0.0 0.00 0.03 0.03 67 1011.0
20260509181324 27 236 0.0 0.0 0.00 0.03 0.03 66 1012.8
20260509181055 27 236 0.0 0.0 0.00 0.03 0.03 65 1011.0
20260509180820 27 236 0.0 0.0 0.00 0.03 0.03 66 1012.9
20260509180550 27 236 0.0 0.0 0.00 0.03 0.03 66 1011.1
20260509180337 28 290 0.0 0.0 0.00 0.03 0.03 67 1013.0
20260509180017 27 148 0.0 0.0 0.00 0.03 0.03 67 1011.2
20260509175831 27 152 0.0 0.0 0.00 0.03 0.03 68 1013.1
20260509175602 27 99 0.0 0.0 0.00 0.03 0.03 70 1011.3
20260509175325 27 62 0.0 0.0 0.00 0.03 0.03 70 1013.1
20260509175031 27 62 0.0 0.0 0.00 0.03 0.03 70 1011.3
20260509174822 27 42 0.0 0.0 0.00 0.03 0.03 70 1013.1
20260509174539 27 12 0.0 0.0 0.00 0.03 0.03 71 1011.3
20260509174318 27 8 0.0 0.0 0.00 0.03 0.03 70 1013.2
20260509174024 26 348 0.0 0.0 0.00 0.03 0.03 71 1011.4
20260509173833 27 359 0.0 0.0 0.00 0.03 0.03 71 1013.3
20260509173504 26 334 0.0 0.0 0.00 0.03 0.03 71 1011.5
20260509173329 27 206 0.0 0.0 0.00 0.03 0.03 71 1013.4
20260509173101 26 65 0.0 0.0 0.00 0.03 0.03 72 1011.6
20260509172846 27 37 0.0 0.0 0.00 0.03 0.03 72 1013.4
20260509172527 26 324 0.0 0.0 0.00 0.03 0.03 71 1011.6
20260509172322 26 314 0.0 0.0 0.00 0.03 0.03 72 1013.5
20260509172025 26 8 0.0 0.0 0.00 0.03 0.03 71 1011.7
20260509171818 27 354 0.0 0.0 0.00 0.03 0.03 71 1013.6
20260509171512 26 53 0.0 0.0 0.00 0.03 0.03 73 1011.9
20260509171314 27 10 0.0 0.0 0.00 0.03 0.03 73 1013.7
20260509171003 26 346 0.0 0.0 0.00 0.03 0.03 73 1011.8
20260509170850 26 346 0.0 0.0 0.00 0.03 0.03 73 1013.6
20260509170537 26 45 0.0 0.0 0.00 0.03 0.03 73 1011.8
20260509170326 26 32 0.0 0.0 0.00 0.03 0.03 74 1013.6
20260509170031 26 87 0.0 0.0 0.00 0.03 0.03 74 1011.8
20260509165822 26 87 0.0 0.0 0.00 0.03 0.03 74 1013.7
20260509165522 26 51 0.0 0.0 0.00 0.03 0.03 75 1011.8
20260509165319 26 54 0.0 0.0 0.00 0.03 0.03 76 1013.7
20260509165015 26 42 0.0 0.0 0.00 0.03 0.03 77 1011.8
20260509164834 26 42 0.0 0.0 0.00 0.03 0.03 77 1013.7
20260509164559 26 39 0.0 0.0 0.00 0.03 0.03 77 1011.8
20260509164345 26 4 0.0 0.0 0.00 0.03 0.03 77 1013.6
20260509164030 26 341 0.0 0.0 0.00 0.03 0.03 77 1011.7
20260509163820 26 359 0.0 0.0 0.00 0.03 0.03 77 1013.5
20260509163528 25 342 0.0 0.0 0.00 0.03 0.03 77 1011.7
20260509163317 26 13 0.0 0.0 0.00 0.03 0.03 77 1013.4
20260509163019 25 47 0.0 8.0 0.00 0.03 0.03 77 1011.7
20260509162831 26 359 0.0 9.7 0.00 0.03 0.03 77 1013.4
20260509162602 25 336 0.0 14.5 0.00 0.03 0.03 78 1011.5
20260509162327 25 334 3.2 14.5 0.00 0.03 0.03 77 1013.4
20260509162053 25 334 4.8 14.5 0.00 0.03 0.03 78 1011.7
20260509161843 25 303 6.4 14.5 0.00 0.03 0.03 77 1013.3
20260509161530 25 30 4.8 14.5 0.00 0.03 0.03 79 1011.7
20260509161338 25 354 4.8 14.5 0.00 0.03 0.03 78 1013.4
20260509161049 25 308 6.4 14.5 0.00 0.03 0.03 78 1011.7
20260509160833 25 314 9.7 14.5 0.00 0.03 0.03 78 1013.5
20260509160541 25 21 3.2 9.7 0.00 0.03 0.03 80 1011.7
20260509160349 25 354 1.6 12.9 0.00 0.03 0.03 80 1013.6
20260509160007 25 330 3.2 12.9 0.00 0.03 0.03 79 1011.8
20260509155824 25 320 4.8 12.9 0.00 0.03 0.03 79 1013.5
20260509155600 25 298 6.4 12.9 0.00 0.03 0.03 80 1011.8
20260509155339 25 322 1.6 9.7 0.00 0.03 0.03 81 1013.6
20260509155032 25 321 3.2 6.4 0.00 0.03 0.03 81 1011.9
20260509154814 25 72 1.6 6.4 0.00 0.03 0.03 81 1013.7
20260509154523 25 195 0.0 4.8 0.00 0.03 0.03 81 1011.9
20260509154330 25 195 0.0 4.8 0.00 0.03 0.03 81 1013.7
20260509154010 25 195 0.0 4.8 0.00 0.03 0.03 81 1011.9
20260509153826 25 195 0.0 0.0 0.00 0.03 0.03 82 1013.7
20260509153602 24 195 0.0 0.0 0.00 0.03 0.03 82 1011.9
20260509153321 24 195 0.0 0.0 0.00 0.03 0.03 83 1013.6
20260509153056 24 195 0.0 0.0 0.00 0.03 0.03 83 1011.9
20260509152818 24 195 0.0 0.0 0.00 0.03 0.03 83 1013.6
20260509152545 24 195 0.0 0.0 0.00 0.03 0.03 83 1011.9
20260509152315 24 174 0.0 0.0 0.00 0.03 0.03 83 1013.6
20260509152037 23 215 0.0 0.0 0.00 0.03 0.03 85 1011.8
20260509151830 24 204 0.0 0.0 0.00 0.03 0.03 85 1013.5
20260509151529 23 243 0.0 0.0 0.00 0.03 0.03 85 1011.7
20260509151325 23 258 0.0 0.0 0.00 0.03 0.03 85 1013.5
20260509151022 23 200 0.0 0.0 0.00 0.03 0.03 85 1011.7
20260509150821 23 201 0.0 0.0 0.00 0.03 0.03 85 1013.3
20260509150518 23 223 0.0 0.0 0.00 0.03 0.03 85 1011.5
20260509150317 23 224 0.0 0.0 0.00 0.03 0.03 85 1013.2
20260509150104 23 208 0.0 0.0 0.00 0.03 0.03 86 1011.3
20260509145832 23 199 0.0 0.0 0.00 0.03 0.03 86 1013.1
20260509145553 23 241 0.0 0.0 0.00 0.03 0.03 86 1011.2
20260509145329 23 226 0.0 0.0 0.00 0.03 0.03 86 1012.9
20260509145044 23 201 0.0 0.0 0.00 0.03 0.03 87 1011.2
20260509144825 23 228 0.0 0.0 0.00 0.03 0.03 87 1012.8
20260509144532 23 271 0.0 0.0 0.00 0.03 0.03 87 1011.2
20260509144341 23 264 0.0 0.0 0.00 0.03 0.03 88 1012.9
20260509144056 22 235 0.0 0.0 0.00 0.03 0.03 87 1011.1
20260509143817 23 206 0.0 0.0 0.00 0.03 0.03 88 1012.9
20260509143549 22 214 0.0 0.0 0.00 0.03 0.03 88 1011.1
20260509143332 22 224 0.0 0.0 0.00 0.03 0.03 87 1012.8
20260509143051 22 261 0.0 0.0 0.00 0.03 0.03 88 1011.1
20260509142828 22 226 0.0 0.0 0.00 0.03 0.03 88 1012.9
20260509142535 22 231 0.0 0.0 0.00 0.03 0.03 88 1011.2
20260509142324 22 227 0.0 0.0 0.00 0.03 0.03 88 1012.8
20260509142028 22 275 0.0 0.0 0.00 0.03 0.03 88 1011.1
20260509141821 22 261 0.0 0.0 0.00 0.03 0.03 88 1012.8
20260509141521 22 238 0.0 0.0 0.00 0.03 0.03 88 1011.0
20260509141318 22 258 0.0 0.0 0.00 0.03 0.03 88 1012.8
20260509141014 22 266 0.0 0.0 0.00 0.03 0.03 88 1011.1
20260509140814 22 250 0.0 0.0 0.00 0.03 0.03 89 1012.8
20260509140602 22 246 0.0 0.0 0.00 0.03 0.03 89 1011.0
20260509140332 22 247 0.0 0.0 0.00 0.03 0.03 89 1012.7
20260509135828 22 285 0.0 0.0 0.00 0.03 0.03 88 1012.8
20260509135547 22 269 0.0 0.0 0.00 0.03 0.03 89 1011.1
20260509135340 22 303 0.0 0.0 0.00 0.03 0.03 89 1012.6
20260509135012 22 281 0.0 0.0 0.00 0.03 0.03 89 1010.8
20260509134853 22 268 0.0 0.0 0.00 0.03 0.03 89 1012.5
20260509134541 21 236 0.0 0.0 0.00 0.03 0.03 89 1010.7
20260509134328 22 249 0.0 0.0 0.00 0.03 0.03 89 1012.4
20260509134032 21 265 0.0 0.0 0.00 0.03 0.03 89 1010.7
20260509133845 22 274 0.0 0.0 0.00 0.03 0.03 89 1012.5
20260509133559 21 270 0.0 0.0 0.00 0.03 0.03 90 1010.9
20260509133319 21 297 0.0 0.0 0.00 0.03 0.03 90 1012.5
20260509133051 21 247 0.0 0.0 0.00 0.03 0.03 90 1010.9
20260509132815 21 302 0.0 0.0 0.00 0.03 0.03 90 1012.3
20260509132541 21 311 0.0 0.0 0.00 0.03 0.03 91 1010.6
20260509132331 21 319 0.0 0.0 0.00 0.03 0.03 91 1012.2
20260509132031 21 319 0.0 0.0 0.00 0.03 0.03 91 1010.4
20260509131827 21 300 0.0 0.0 0.03 0.03 0.03 91 1012.2
20260509131513 21 294 0.0 0.0 0.03 0.03 0.03 91 1010.4
20260509131322 21 158 0.0 0.0 0.03 0.03 0.03 92 1011.9
20260509131004 20 159 0.0 0.0 0.03 0.03 0.03 91 1010.1